Regional Weather Roundup
Issued by NWS

Home | Current Version | Previous Version | Graphics & Text | Print | Product List | Glossary On
Versions: 1 2 3 4 5 6 7 8 9 10 11 12 13 14 15 16 17 18 19 20 21 22 23 24 25 26 27 28 29 30 31 32 33 34 35 36 37 38 39 40 41 42 43 44 45 46 47 48 49 50
000
ASUS43 KDMX 291706
RWRIA

WEATHER ROUNDUP FOR IOWA
NATIONAL WEATHER SERVICE DES MOINES IA
1200 PM CDT SAT APR 29 2017

NOTE: "FAIR" INDICATES FEW OR NO CLOUDS BELOW 12,000 FEET WITH NO
SIGNIFICANT WEATHER AND/OR OBSTRUCTIONS TO VISIBILITY.

* - THESE STATIONS ARE NOT NWS STATIONS...THUS NOT UNDER NWS
QUALITY CONTROL.  THEY ALSO DO NOT REPORT WEATHER SUCH
AS PRECIPITATION OR FOG.

IAZ001>003-012>014-020>022-031>034-043>046-291800-
   NORTHWEST IOWA

CITY           SKY/WX    TMP DP  RH WIND       PRES   REMARKS
CARROLL *      CLOUDY    45  37  76 NE23G30   30.14R
CHEROKEE *     CLOUDY    46  33  59 NE15G25   30.16S
DENISON *      PTSUNNY   45  36  70 NE26G33   30.13S
LE MARS *      CLOUDY    48  32  53 NE15G22   30.18F
ORANGE CITY *  PTSUNNY   46  34  61 E13G18    30.18S
SHELDON *      PTSUNNY   46  32  57 NE21      30.17S
SIOUX CITY     CLOUDY    49  32  52 E17G24    30.17R
SPENCER        CLOUDY    46  33  60 NE20      30.19R
STORM LAKE *     N/A     45  34  65 NE21G28   30.15R
$$

IAZ055>058-069>071-079>083-090>094-291800-
   SOUTHWEST IOWA

CITY           SKY/WX    TMP DP  RH WIND       PRES   REMARKS
ATLANTIC *     LGT RAIN  45  39  81 NE16G25   30.08R
AUDUBON *      DRIZZLE   43  37  81 NE20G26   30.12R
CLARINDA *     CLOUDY    45  43  93 E17G24    30.04F FOG
COUNCIL BLFS * CLOUDY    43  41  93 NE22G28   30.06R
CRESTON *      LGT RAIN  43  43 100 NE23      30.08R
HARLAN  *      CLOUDY    45  36  70 NE24G33   30.14R
LAMONI         RAIN      44  42  93 NE17G24   30.03R FOG
RED OAK *      LGT RAIN  43  41  93 NE16G24   30.05R
SHENANDOAH *   MIX PCPN  45  43  93 NE17G24   30.04R
$$

IAZ047>049-059>061-072>074-084-291800-
   CENTRAL IOWA

CITY           SKY/WX    TMP DP  RH WIND       PRES   REMARKS
AMES           CLOUDY    44  36  73 NE13G22   30.15R
ANKENY *       LGT RAIN  43  39  87 NE12      30.14R
BOONE *        MIX PCPN  43  37  81 NE21      30.14R
CHARITON *     RAIN      43  43 100 NE17      30.07R
DES MOINES     LGT RAIN  44  39  82 NE15G25   30.12R
GRINNELL*      LGT RAIN  43  38  83 NE18G24   30.12S
KNOXVILLE *    LGT RAIN  43  41  93 NE17      30.08R
MARSHALLTOWN   CLOUDY    45  35  68 NE22G29   30.13R
NEWTON *       CLOUDY    43  39  87 NE16G23   30.10R FOG
PELLA *        LGT RAIN  43  40  89 E9G24     30.10S
PERRY *        LGT RAIN  44  36  75 NE14      30.14R
$$

IAZ004>006-015-016-023>025-035-036-291800-
   NORTH CENTRAL IOWA

CITY           SKY/WX    TMP DP  RH WIND       PRES   REMARKS
ALGONA *       CLOUDY    45  34  65 NE18G24   30.18S
CLARION *      CLOUDY    45  36  70 NE18G24   30.17R
ESTHERVILLE    PTSUNNY   44  32  62 NE22      30.20S
FORT DODGE *   CLOUDY    45  34  65 NE14G21   30.17R
MASON CITY     CLOUDY    45  30  55 NE23      30.18F
FOREST CITY *    N/A     45  27  49 NE14G22   30.19S
WEBSTER CITY * CLOUDY    45  36  70 NE14G25   30.15R
IOWA FALLS *   CLOUDY    44  35  71 NE17G24   30.17R
$$

IAZ007>011-017>019-026>030-037>042-050>054-066-291800-
   NORTHEAST IOWA

CITY           SKY/WX    TMP DP  RH WIND       PRES   REMARKS
CEDAR RAPIDS   LGT RAIN  44  40  85 E12       30.15R FOG
CHARLES CITY * CLOUDY    43  32  65 NE20G28   30.17S
CLINTON *      LGT RAIN  46  39  76 E14       30.19R
DECORAH *      CLOUDY    43  30  61 NE14G22   30.18R
DUBUQUE        CLOUDY    44  33  65 NE20G26   30.17R
MONTICELLO *   CLOUDY    46  34  61 NE16G25   30.16R
OELWEIN *      CLOUDY    45  36  70 NE17G25   30.16R
WATERLOO       PTSUNNY   45  33  63 E18       30.16R
$$

IAZ064-065-067-068-078-291800-
   EAST CENTRAL IOWA

CITY           SKY/WX    TMP DP  RH WIND       PRES   REMARKS
DAVENPORT      RAIN      43  38  82 E12       30.20R
IOWA CITY      LGT RAIN  47  40  76 E13       30.16R
MT. PLEASANT * LGT RAIN  43  42  97 NE21G26   30.04F
MUSCATINE *    LGT RAIN  45  41  87 E10       30.15F
QUAD CITIES    LGT RAIN  44  38  79 NE9       30.18R
$$

IAZ062-063-075>077-085>089-095>099-291800-
   SOUTHEAST IOWA

CITY           SKY/WX    TMP DP  RH WIND       PRES   REMARKS
BURLINGTON     RAIN      44  44 100 NE22G32   30.02F FOG
FAIRFIELD *    CLOUDY    43  41  93 NE23G31   30.04F
FORT MADISON * LGT RAIN  45  43  93 NE17G25   30.02F
KEOKUK *       HVY RAIN  45  45 100 NE15      30.00F
OSKALOOSA *    LGT RAIN  43  41  93 E18       30.07F
CENTERVILLE *  HVY RAIN  45  45 100 NE16G24   30.04R
OTTUMWA        LGT RAIN  44  42  93 NE21G36   30.06F
WASHINGTON *   LGT RAIN  43  41  93 NE24G30   30.11F
$$

ABBREVIATIONS USED IN REMARKS
   TC - TEMPERATURES IN CELSIUS
  WCI - WIND CHILL INDEX
   HX - HEAT INDEX
  VSB - VISIBILITY
$$





USA.gov is the U.S. government's official web portal to all federal, state and local government web resources and services.